User: anonymous   Login
Location: Cutler
(25.6150°N, 80.3110°W)
Time: 01:17:16
(UTC-04:00)
Language:

Cosmos 2360 Rocket - Orbit

View from above orbital plane
View from above orbital plane
View from above satellite
View from above satellite

Ground track
Ground track

The orbit data is extracted from the following two-line orbital elements,

1 25407U 98045B   16145.12556949 -.00000258  00000-0 -10720-3 0  9992
2 25407  71.0086 139.0203 0005520  76.3859 283.7878 14.15745300921117
Epoch (UTC): 24 May 2016 03:00:49
Eccentricity: 0.0005520
inclination: 71.0086°
perigee height: 836 km
apogee height: 844 km
right ascension of ascending node: 139.0203°
argument of perigee: 76.3859°
revolutions per day: 14.15745300
mean anomaly at epoch: 283.7878°
orbit number at epoch: 92111

The dashed part of the orbit path shows where the satellite is in the earth's shadow,  

DLR